Location: Chakepay
(13.3931°S, 72.1925°W)
Time: 13:40:50
(UTC+00:00)

Lacrosse 4 Rocket - Pass Details

Date: 15 November 2019
Orbit: 543 x 616 km, 68.0° (Epoch: 10 December)

Event Time Altitude Azimuth Distance (km) Brightness Sun altitude
Rises 09:18:57 0° 4° (N) 2,789 4.7 -12.8°
Reaches altitude 10° 09:21:26 10° 17° (NNE) 1,909 4.0 -12.2°
Maximum altitude 09:25:00 26° 74° (ENE) 1,202 3.7 -11.4°
Drops below altitude 10° 09:28:38 10° 130° (SE) 1,958 5.5 -10.6°
Sets 09:31:13 0° 142° (SE) 2,877 6.1 -10.0°
